BREEZE-M DEB, 36958

Orbit data source: Space-Track

BREEZE-M DEB, 36958 is space debris originally from a launch on Tue, 28 Feb 2006 UTC launched from the Tyuratam Missile And Space Complex (TTMTR). Debris objects in space refer to the collection of defunct objects orbiting the Earth. Examples of debris include non-operational satellites, rocket bodies, and fragments generated from explosions, collisions, or faulty payload assembly.

Loading next visibility...
Identifier
36958, 2006-006CQ
Orbit
Active
Country
Flag of CISCIS
Related business
Manufacturer
Khrunichev
Mission
Spacecraft
Bus & Motor
Unknown
Mass
Unknown
Launch date (UTC)
2006-02-28 (20 years ago)
Launch vehicle
Unknown
Launch site
Tyuratam Missile And Space Complex (TTMTR)
Object type
Payload
Rocket body
Debris
Shape & HBR
Unknown shape, 1.1 m
Radar Cross Section
Medium (>0.1 m² and <1 m²)

Expand to show TLE details & history
Last TLE update: 2 weeks ago

TLE from 2 weeks ago
0 BREEZE-M DEB
1 36958U 06006CQ  26152.27474240  .00010165  00000-0  43551-2 0  9992
2 36958  51.7082 142.4867 4318875 184.7572 169.3347  6.66278991  2535
Epoch: 2026-06-01T06:35Z
TLE epoch observation values (Epoch: 2026-06-01T06:35:37.743Z)
Latitude
0.00005°
Longitude
153.81507°
Altitude
10,660.626 km
Speed
3.658 km/s
True Right ascension
09h 29m 56s
True Declination
0° 00' 00"
Sunlit
Object was in daylight at epoch
Visualization orbit readout
Latitude
Unknown
Longitude
Unknown
Altitude
Unknown
Speed
Unknown
Apparent Right ascension
Unknown
Apparent Declination
Unknown
Sunlit
N/A
Visualization observer readout
Local Sidereal Time
12:48:19
Azimuth
Unknown
Elevation
Unknown
Doppler factor
Unknown
Orbital elements
Apogee altitude
10,704.471 km
Perigee altitude
399.521 km
Semi-major axis
11,930.133 km
Eccentricity
0.43189
Inclination
51.7082°
RAAN
142.4867°
Arg. of periapsis
184.7572°
True anomaly
175.30034°
Mean anomaly
169.3347°
Eccentric anomaly
172.54524°
Mean motion
1.66562 °/min
Orbital period
216.14 mins
BSTAR
0.0043551
Loading maneuver chart data...
Computing Atmospheric mass density...
Loading historical data...
Loading historical data...
Loading historical data...
Loading historical data...
Loading historical data...
Loading historical data...
Loading historical data...

Documentation

Showing up to 5 results
|